Regional Weather Roundup
Issued by NWS Raleigh/Durham, NC

Home | Current Version | Previous Version | Text Only | Print | Product List | Glossary On
Versions: 1 2 3 4 5 6 7 8 9 10 11 12 13 14 15 16 17 18 19 20 21 22 23 24 25 26 27 28 29 30 31 32 33 34 35 36 37 38 39 40 41 42 43 44 45 46 47 48 49
000
ASUS42 KRAH 270410
RWRRAH
NORTH CAROLINA WEATHER ROUNDUP
NATIONAL WEATHER SERVICE RALEIGH NC
1100 PM EST MON JAN 26 2015

NOTE: "FAIR" INDICATES FEW OR NO CLOUDS BELOW 12,000 FEET WITH NO
SIGNIFICANT WEATHER AND/OR OBSTRUCTIONS TO VISIBILITY.

NCZ001-053-055-056-065-067-270500-
WESTERN NORTH CAROLINA

CITY           SKY/WX    TMP DP  RH WIND       PRES   REMARKS
ASHEVILLE      PTCLDY    28  22  78 N12G22    29.79R WCI  18
JEFFERSON      CLOUDY    24  18  79 NW21G29   29.69F WCI   9
MORGANTON      CLOUDY    34  23  62 W10G16    29.81F WCI  26
HICKORY        CLOUDY    34  22  61 NW7       29.76F WCI  28
RUTHERFORDTON  PTCLDY    35  22  59 N5        29.80S WCI  31
MOUNT AIRY     CLOUDY    35  25  66 NW8G17    29.75S WCI  28
BOONE          FLURRIES  24  21  89 NW26G38   29.69S WCI   7
$$

NCZ021-022-025-041-071-084-088-270500-
CENTRAL NORTH CAROLINA

CITY           SKY/WX    TMP DP  RH WIND       PRES   REMARKS
CHARLOTTE      CLOUDY    37  22  54 NW13      29.77S WCI  29
GREENSBORO     CLOUDY    38  26  62 NW7       29.72R WCI  33
WINSTON-SALEM  CLOUDY    37  23  56 NW12G21   29.74R WCI  29
RALEIGH-DURHAM DRIZZLE   42  36  79 VRB5      29.69S
FORT BRAGG     CLOUDY    45  41  87 NW8       29.68R
FAYETTEVILLE   CLOUDY    46  41  82 NW8       29.68R
BURLINGTON     CLOUDY    40  26  57 NW12      29.71R WCI  33
LAURINBURG     CLOUDY    45  37  73 NW8       29.70S
$$

NCZ011-015-027-028-043-044-047-080-103-270500-
NORTHEASTERN NORTH CAROLINA

CITY           SKY/WX    TMP DP  RH WIND       PRES   REMARKS
ROCKY MT-WILSO CLOUDY    42  37  82 NW14G21   29.66S
GREENVILLE     CLOUDY    43  39  87 NW10G18   29.67S
WASHINGTON     CLOUDY    43  39  84 NW9G21    29.62R
ELIZABETH CITY CLOUDY    39  35  86 NW17G24   29.62R WCI  30
MANTEO         CLOUDY    39  37  93 NW10G20   29.58R WCI  32
CAPE HATTERAS  CLOUDY    45  41  86 NW12G22   29.56S
$$

NCZ078-087-090-091-093-098-101-270500-
SOUTHEASTERN NORTH CAROLINA

CITY           SKY/WX    TMP DP  RH WIND       PRES   REMARKS
LUMBERTON      CLOUDY    47  40  76 NW12      29.69R
GOLDSBORO      CLOUDY    45  45 100 NW10      29.64R
KINSTON        CLOUDY    46  41  83 NW12G18   29.64S
KENANSVILLE    MOCLDY    45  39  80 NW10G16   29.66S
NEW BERN       CLOUDY    47  42  83 NW8       29.62S
CHERRY POINT   PTCLDY    46  42  86 NW10      29.61S
BEAUFORT       PTCLDY    46  44  93 NW13      29.60R
JACKSONVILLE   CLOUDY    47  42  83 NW13      29.62S
WILMINGTON     CLOUDY    47  44  90 W10       29.65S
$$




USA.gov is the U.S. government's official web portal to all federal, state and local government web resources and services.